Total_Precipitation_Accumulation
0.05 0.06 0.03 0.07 0.16 0.10 0.22 0.19 0.10 0.13 0.12 0.32 0.09 0.07 0.24 0.07 0.07 0.04 0.05 0.04 0.03 0.03 0.03 0.07 0.05 0.02 0.00 0.00 0.01 0.00 0.00 0.00 0.00 0.00 0.00 0.01 0.02 0.09 0.00 0.01 0.08 0.05 0.06 0.27 0.49 0.46 0.35 0.33 0.14 0.17 0.15 0.13 0.19 0.14 0.15 0.08 0.08 0.03 0.02 0.02 0.03 0.03 0.02 0.02 0.02 0.05 0.04 0.05 0.03 0.03 0.04 0.02 0.01 0.00 0.00 0.00 0.00 0.00 0.01 0.01 0.01 0.01 0.00 0.01 0.01
0.02 0.03 0.03 0.09 0.13 0.07 0.07 0.07 0.12 0.10 0.23 0.12 0.14 0.16 0.15 0.10 0.09 0.02 0.02 0.06 0.08 0.04 0.05 0.07 0.03 0.00 0.00 0.00 0.00 0.00 0.00 0.00 0.00 0.00 0.00 0.00 0.01 0.03 0.00 0.01 0.06 0.07 0.11 0.18 0.31 0.44 0.39 0.25 0.34 0.18 0.13 0.28 0.34 0.18 0.20 0.14 0.10 0.07 0.07 0.05 0.04 0.05 0.06 0.02 0.01 0.02 0.03 0.05 0.03 0.01 0.02 0.04 0.02 0.02 0.00 0.00 0.00 0.00 0.00 0.00 0.01 0.01 0.01 0.03 0.01
0.10 0.11 0.11 0.02 0.06 0.08 0.09 0.20 0.14 0.14 0.05 0.08 0.15 0.08 0.07 0.05 0.02 0.06 0.04 0.01 0.04 0.07 0.03 0.05 0.03 0.00 0.01 0.00 0.01 0.00 0.00 0.00 0.00 0.00 0.00 0.00 0.02 0.06 0.03 0.01 0.08 0.05 0.18 0.17 0.16 0.12 0.21 0.34 0.36 0.19 0.20 0.21 0.29 0.52 0.20 0.21 0.21 0.14 0.08 0.06 0.07 0.04 0.03 0.02 0.03 0.02 0.01 0.03 0.03 0.03 0.03 0.04 0.03 0.03 0.03 0.02 0.02 0.00 0.01 0.03 0.02 0.02 0.01 0.03 0.02
0.05 0.06 0.05 0.05 0.04 0.06 0.14 0.26 0.14 0.13 0.09 0.13 0.18 0.15 0.09 0.03 0.02 0.01 0.06 0.19 0.04 0.04 0.01 0.07 0.04 0.01 0.01 0.01 0.01 0.00 0.00 0.00 0.00 0.00 0.00 0.00 0.00 0.04 0.13 0.17 0.04 0.07 0.12 0.09 0.12 0.31 0.18 0.16 0.16 0.14 0.28 0.29 0.45 0.49 0.37 0.17 0.22 0.13 0.11 0.18 0.15 0.06 0.07 0.10 0.05 0.02 0.04 0.03 0.03 0.05 0.06 0.05 0.05 0.05 0.03 0.03 0.04 0.02 0.06 0.05 0.06 0.06 0.05 0.02 0.03
0.02 0.03 0.07 0.03 0.06 0.05 0.31 0.26 0.17 0.09 0.20 0.16 0.13 0.12 0.07 0.09 0.06 0.06 0.23 0.25 0.09 0.07 0.02 0.02 0.02 0.01 0.01 0.03 0.00 0.00 0.00 0.00 0.00 0.00 0.00 0.00 0.00 0.01 0.06 0.07 0.12 0.04 0.03 0.03 0.07 0.16 0.13 0.20 0.24 0.08 0.13 0.28 0.73 0.68 0.31 0.19 0.25 0.25 0.19 0.28 0.44 0.21 0.21 0.23 0.15 0.14 0.08 0.03 0.02 0.01 0.03 0.03 0.03 0.08 0.04 0.03 0.06 0.08 0.03 0.02 0.19 0.09 0.11 0.06 0.06
0.01 0.02 0.02 0.07 0.11 0.05 0.34 0.12 0.13 0.11 0.12 0.08 0.05 0.10 0.06 0.05 0.08 0.06 0.06 0.03 0.08 0.04 0.02 0.02 0.01 0.01 0.02 0.00 0.00 0.00 0.00 0.00 0.00 0.00 0.00 0.00 0.00 0.01 0.04 0.07 0.05 0.08 0.15 0.05 0.04 0.09 0.07 0.17 0.25 0.19 0.21 0.22 0.23 0.24 0.29 0.20 0.34 0.32 0.41 0.74 0.52 0.28 0.16 0.18 0.16 0.16 0.24 0.28 0.15 0.06 0.05 0.02 0.02 0.03 0.07 0.12 0.05 0.07 0.08 0.10 0.06 0.16 0.09 0.06 0.02
0.01 0.04 0.02 0.06 0.12 0.19 0.13 0.11 0.16 0.08 0.23 0.12 0.06 0.04 0.05 0.09 0.08 0.09 0.04 0.03 0.05 0.06 0.02 0.04 0.01 0.01 0.00 0.00 0.00 0.00 0.00 0.00 0.00 0.00 0.00 0.00 0.00 0.02 0.02 0.05 0.04 0.09 0.08 0.10 0.05 0.07 0.07 0.16 0.31 0.39 0.23 0.18 0.19 0.15 0.27 0.16 0.41 0.29 0.44 0.58 0.49 0.30 0.17 0.15 0.23 0.23 0.22 0.23 0.41 0.34 0.31 0.08 0.09 0.12 0.05 0.04 0.04 0.05 0.05 0.10 0.09 0.09 0.15 0.12 0.10
0.04 0.04 0.03 0.08 0.08 0.11 0.25 0.22 0.10 0.11 0.12 0.12 0.08 0.09 0.06 0.09 0.09 0.12 0.06 0.06 0.02 0.04 0.03 0.02 0.03 0.01 0.01 0.00 0.00 0.00 0.00 0.00 0.00 0.00 0.00 0.01 0.03 0.02 0.03 0.03 0.03 0.03 0.06 0.06 0.11 0.02 0.05 0.09 0.21 0.33 0.22 0.24 0.32 0.45 0.35 0.38 0.44 0.33 0.34 0.31 0.30 0.45 0.36 0.20 0.24 0.28 0.39 0.38 0.42 0.38 0.41 0.33 0.31 0.21 0.15 0.09 0.11 0.06 0.09 0.06 0.06 0.06 0.06 0.05 0.04
0.06 0.04 0.02 0.06 0.06 0.20 0.15 0.11 0.17 0.12 0.13 0.12 0.12 0.10 0.10 0.14 0.05 0.05 0.04 0.02 0.04 0.03 0.03 0.01 0.01 0.01 0.01 0.00 0.00 0.00 0.00 0.00 0.00 0.00 0.00 0.01 0.02 0.05 0.02 0.01 0.01 0.04 0.04 0.09 0.08 0.08 0.03 0.01 0.11 0.15 0.18 0.20 0.17 0.36 0.27 0.47 0.43 0.59 0.44 0.37 0.28 0.37 0.22 0.26 0.42 0.38 0.65 0.61 0.89 0.55 0.44 0.29 0.35 0.30 0.32 0.39 0.30 0.26 0.20 0.19 0.11 0.06 0.04 0.02 0.04
0.05 0.05 0.02 0.03 0.05 0.09 0.08 0.05 0.12 0.05 0.10 0.08 0.12 0.10 0.08 0.08 0.10 0.05 0.05 0.03 0.04 0.04 0.03 0.01 0.00 0.01 0.00 0.02 0.00 0.00 0.00 0.00 0.00 0.00 0.00 0.00 0.01 0.01 0.02 0.03 0.04 0.03 0.04 0.03 0.10 0.10 0.11 0.04 0.02 0.07 0.05 0.06 0.07 0.14 0.40 0.35 0.43 0.39 0.29 0.39 0.48 0.37 0.58 0.47 0.60 0.46 0.45 0.60 0.69 0.58 0.44 0.44 0.42 0.39 0.31 0.35 0.33 0.48 0.55 0.36 0.22 0.26 0.15 0.06 0.07
0.10 0.07 0.04 0.06 0.13 0.06 0.05 0.17 0.10 0.12 0.10 0.07 0.21 0.08 0.09 0.05 0.03 0.08 0.02 0.03 0.02 0.03 0.02 0.01 0.00 0.01 0.00 0.00 0.00 0.00 0.00 0.00 0.00 0.00 0.00 0.00 0.00 0.01 0.01 0.00 0.00 0.01 0.05 0.05 0.10 0.07 0.09 0.19 0.18 0.22 0.14 0.07 0.15 0.23 0.23 0.16 0.13 0.25 0.32 0.38 0.30 0.53 0.83 0.66 0.53 0.46 0.50 0.53 0.45 0.44 0.42 0.56 0.45 0.67 0.47 0.50 0.57 0.48 0.42 0.27 0.26 0.29 0.19 0.15 0.13
0.06 0.10 0.03 0.07 0.05 0.06 0.04 0.10 0.13 0.18 0.25 0.12 0.13 0.07 0.07 0.03 0.04 0.06 0.08 0.05 0.02 0.01 0.01 0.01 0.00 0.00 0.00 0.00 0.00 0.00 0.00 0.00 0.00 0.00 0.00 0.00 0.00 0.00 0.02 0.00 0.00 0.00 0.01 0.01 0.03 0.08 0.12 0.14 0.21 0.22 0.19 0.10 0.15 0.15 0.14 0.22 0.30 0.17 0.13 0.26 0.54 0.65 0.68 0.60 0.46 0.60 0.39 0.50 0.58 0.48 0.37 0.39 0.37 0.41 0.31 0.52 0.38 0.46 0.42 0.38 0.17 0.24 0.19 0.19 0.11
0.11 0.13 0.12 0.10 0.05 0.09 0.05 0.05 0.08 0.12 0.18 0.16 0.05 0.12 0.12 0.08 0.04 0.04 0.07 0.02 0.01 0.01 0.01 0.01 0.01 0.00 0.00 0.00 0.00 0.00 0.00 0.00 0.00 0.00 0.00 0.01 0.00 0.00 0.00 0.00 0.00 0.00 0.00 0.00 0.00 0.01 0.04 0.04 0.06 0.08 0.16 0.21 0.16 0.09 0.18 0.14 0.10 0.07 0.15 0.30 0.29 0.40 0.28 0.46 0.61 0.59 0.39 0.27 0.42 0.34 0.30 0.51 0.33 0.27 0.31 0.26 0.29 0.56 0.48 0.33 0.21 0.21 0.26 0.15 0.21
0.05 0.07 0.05 0.04 0.05 0.04 0.09 0.12 0.11 0.30 0.15 0.05 0.05 0.05 0.05 0.08 0.02 0.07 0.05 0.02 0.01 0.01 0.01 0.01 0.02 0.01 0.00 0.00 0.00 0.00 0.00 0.00 0.00 0.00 0.00 0.00 0.01 0.02 0.00 0.00 0.00 0.00 0.00 0.00 0.00 0.00 0.00 0.02 0.02 0.05 0.07 0.10 0.11 0.11 0.24 0.24 0.10 0.03 0.06 0.08 0.15 0.15 0.21 0.25 0.34 0.61 0.46 0.35 0.31 0.28 0.15 0.22 0.20 0.26 0.30 0.35 0.23 0.30 0.34 0.36 0.32 0.24 0.31 0.21 0.21
0.06 0.07 0.05 0.04 0.12 0.12 0.19 0.19 0.16 0.05 0.04 0.05 0.06 0.08 0.05 0.04 0.04 0.04 0.06 0.02 0.01 0.01 0.02 0.01 0.00 0.00 0.00 0.00 0.00 0.00 0.07 0.00 0.00 0.00 0.00 0.00 0.01 0.01 0.00 0.00 0.00 0.00 0.00 0.00 0.00 0.00 0.00 0.00 0.00 0.00 0.01 0.01 0.07 0.08 0.09 0.11 0.04 0.01 0.00 0.01 0.01 0.03 0.10 0.12 0.15 0.12 0.21 0.39 0.38 0.21 0.20 0.19 0.18 0.16 0.23 0.23 0.24 0.28 0.31 0.22 0.29 0.28 0.22 0.15 0.10
0.08 0.07 0.06 0.07 0.19 0.13 0.16 0.13 0.09 0.03 0.03 0.13 0.07 0.05 0.06 0.09 0.05 0.05 0.04 0.03 0.02 0.02 0.01 0.01 0.00 0.00 0.00 0.01 0.00 0.00 0.00 0.01 0.00 0.00 0.00 0.00 0.01 0.00 0.00 0.00 0.00 0.00 0.00 0.00 0.00 0.00 0.00 0.00 0.00 0.00 0.00 0.00 0.00 0.01 0.03 0.01 0.01 0.01 0.01 0.01 0.01 0.01 0.02 0.02 0.03 0.08 0.18 0.31 0.12 0.05 0.07 0.08 0.04 0.06 0.15 0.12 0.17 0.15 0.22 0.21 0.26 0.17 0.12 0.17 0.11
0.06 0.08 0.16 0.19 0.11 0.08 0.02 0.03 0.04 0.05 0.04 0.16 0.08 0.09 0.12 0.07 0.06 0.08 0.09 0.05 0.01 0.02 0.02 0.01 0.00 0.01 0.00 0.00 0.00 0.00 0.01 0.01 0.00 0.01 0.01 0.00 0.00 0.00 0.00 0.00 0.00 0.00 0.00 0.00 0.00 0.00 0.01 0.00 0.00 0.00 0.00 0.00 0.00 0.00 0.00 0.00 0.00 0.01 0.01 0.00 0.01 0.01 0.02 0.02 0.02 0.02 0.06 0.13 0.13 0.12 0.09 0.02 0.01 0.01 0.04 0.12 0.17 0.20 0.19 0.19 0.14 0.13 0.10 0.16 0.15
0.02 0.07 0.18 0.16 0.06 0.03 0.01 0.02 0.02 0.04 0.04 0.07 0.05 0.06 0.09 0.10 0.08 0.06 0.06 0.06 0.03 0.00 0.01 0.02 0.01 0.01 0.01 0.01 0.00 0.06 0.01 0.04 0.00 0.12 0.00 0.01 0.00 0.00 0.00 0.00 0.00 0.00 0.00 0.00 0.00 0.00 0.00 0.01 0.00 0.00 0.00 0.00 0.00 0.00 0.00 0.00 0.00 0.00 0.00 0.00 0.00 0.00 0.00 0.00 0.00 0.01 0.03 0.03 0.05 0.13 0.08 0.03 0.03 0.05 0.05 0.06 0.12 0.18 0.17 0.18 0.24 0.13 0.09 0.13 0.15
0.03 0.03 0.04 0.04 0.04 0.03 0.01 0.02 0.01 0.02 0.04 0.07 0.06 0.05 0.07 0.10 0.04 0.03 0.03 0.03 0.01 0.00 0.00 0.01 0.01 0.00 0.01 0.01 0.01 0.03 0.04 0.01 0.05 0.00 0.01 0.00 0.01 0.01 0.01 0.00 0.00 0.00 0.00 0.00 0.00 0.00 0.00 0.00 0.00 0.00 0.00 0.00 0.00 0.00 0.00 0.00 0.00 0.00 0.00 0.00 0.00 0.00 0.00 0.00 0.00 0.00 0.00 0.00 0.02 0.06 0.12 0.02 0.02 0.02 0.01 0.02 0.05 0.21 0.28 0.23 0.04 0.06 0.11 0.09 0.09
0.01 0.01 0.02 0.01 0.02 0.04 0.03 0.01 0.01 0.01 0.05 0.05 0.10 0.08 0.10 0.05 0.05 0.02 0.03 0.02 0.03 0.01 0.01 0.01 0.01 0.03 0.02 0.04 0.03 0.02 0.01 0.01 0.00 0.00 0.02 0.01 0.01 0.00 0.00 0.00 0.01 0.00 0.00 0.00 0.00 0.00 0.00 0.00 0.00 0.00 0.01 0.00 0.00 0.01 0.02 0.00 0.00 0.00 0.00 0.00 0.00 0.00 0.00 0.00 0.00 0.00 0.00 0.00 0.00 0.00 0.00 0.01 0.05 0.05 0.05 0.02 0.03 0.13 0.28 0.13 0.14 0.13 0.09 0.04 0.06
0.02 0.02 0.02 0.02 0.01 0.02 0.04 0.01 0.01 0.03 0.02 0.04 0.04 0.03 0.03 0.04 0.05 0.02 0.01 0.01 0.01 0.00 0.01 0.02 0.01 0.04 0.05 0.07 0.02 0.01 0.01 0.00 0.00 0.00 0.00 0.00 0.00 0.00 0.01 0.00 0.00 0.01 0.00 0.00 0.00 0.00 0.00 0.00 0.00 0.01 0.01 0.01 0.00 0.00 0.00 0.01 0.00 0.00 0.00 0.00 0.00 0.00 0.00 0.00 0.00 0.00 0.00 0.00 0.00 0.00 0.00 0.00 0.00 0.01 0.00 0.01 0.01 0.03 0.12 0.22 0.23 0.19 0.07 0.09 0.07
0.01 0.01 0.02 0.00 0.00 0.01 0.02 0.03 0.01 0.02 0.01 0.02 0.02 0.02 0.02 0.04 0.01 0.01 0.01 0.01 0.01 0.01 0.01 0.01 0.01 0.02 0.02 0.05 0.03 0.00 0.00 0.00 0.00 0.00 0.01 0.01 0.02 0.01 0.01 0.01 0.00 0.01 0.00 0.00 0.01 0.00 0.00 0.00 0.00 0.01 0.01 0.01 0.00 0.00 0.01 0.00 0.01 0.00 0.01 0.00 0.00 0.00 0.00 0.00 0.00 0.00 0.00 0.00 0.00 0.00 0.00 0.00 0.00 0.00 0.00 0.01 0.02 0.01 0.01 0.04 0.09 0.21 0.11 0.06 0.03
0.00 0.00 0.00 0.00 0.00 0.00 0.01 0.02 0.02 0.02 0.01 0.01 0.03 0.03 0.03 0.01 0.01 0.01 0.01 0.00 0.01 0.00 0.00 0.00 0.01 0.02 0.01 0.01 0.00 0.00 0.00 0.00 0.00 0.00 0.00 0.00 0.00 0.00 0.00 0.00 0.00 0.02 0.00 0.00 0.00 0.01 0.01 0.01 0.00 0.02 0.02 0.01 0.00 0.00 0.00 0.00 0.00 0.00 0.00 0.00 0.00 0.00 0.00 0.00 0.00 0.00 0.00 0.00 0.00 0.00 0.00 0.00 0.00 0.00 0.00 0.00 0.01 0.01 0.02 0.03 0.02 0.02 0.08 0.11 0.06
0.00 0.00 0.00 0.00 0.00 0.00 0.00 0.00 0.01 0.01 0.01 0.02 0.01 0.01 0.02 0.01 0.00 0.01 0.00 0.00 0.00 0.00 0.01 0.01 0.01 0.02 0.01 0.00 0.00 0.00 0.00 0.00 0.00 0.00 0.00 0.01 0.00 0.01 0.01 0.00 0.00 0.00 0.01 0.00 0.00 0.00 0.01 0.02 0.02 0.02 0.01 0.01 0.01 0.00 0.00 0.00 0.00 0.00 0.00 0.00 0.00 0.00 0.00 0.00 0.00 0.00 0.00 0.00 0.00 0.00 0.00 0.00 0.00 0.00 0.00 0.00 0.00 0.00 0.01 0.01 0.01 0.02 0.03 0.04 0.09
0.00 0.00 0.00 0.00 0.00 0.00 0.00 0.00 0.00 0.00 0.00 0.01 0.01 0.01 0.01 0.02 0.01 0.00 0.00 0.00 0.00 0.00 0.00 0.00 0.00 0.01 0.01 0.00 0.00 0.00 0.00 0.00 0.00 0.00 0.00 0.01 0.00 0.00 0.00 0.00 0.00 0.00 0.00 0.00 0.00 0.00 0.01 0.00 0.02 0.01 0.01 0.01 0.00 0.00 0.00 0.00 0.00 0.01 0.00 0.00 0.00 0.00 0.00 0.00 0.00 0.00 0.00 0.00 0.00 0.00 0.00 0.00 0.00 0.00 0.00 0.00 0.00 0.00 0.00 0.00 0.00 0.00 0.01 0.02 0.03
0.00 0.00 0.00 0.00 0.00 0.00 0.00 0.00 0.00 0.00 0.00 0.01 0.01 0.01 0.01 0.01 0.01 0.00 0.00 0.00 0.00 0.00 0.00 0.00 0.00 0.00 0.00 0.01 0.00 0.00 0.00 0.00 0.01 0.01 0.01 0.01 0.01 0.00 0.01 0.00 0.00 0.00 0.00 0.00 0.00 0.01 0.02 0.01 0.01 0.00 0.00 0.00 0.01 0.00 0.00 0.00 0.01 0.00 0.00 0.00 0.00 0.00 0.00 0.00 0.00 0.00 0.00 0.00 0.00 0.00 0.00 0.00 0.00 0.00 0.00 0.00 0.00 0.00 0.00 0.00 0.00 0.00 0.00 0.00 0.00
0.00 0.00 0.00 0.00 0.00 0.00 0.00 0.00 0.00 0.00 0.00 0.00 0.01 0.01 0.01 0.01 0.01 0.01 0.00 0.01 0.01 0.01 0.01 0.01 0.01 0.00 0.00 0.00 0.00 0.00 0.00 0.01 0.00 0.01 0.01 0.01 0.01 0.01 0.02 0.02 0.00 0.01 0.00 0.00 0.00 0.00 0.01 0.02 0.02 0.00 0.00 0.00 0.00 0.00 0.01 0.00 0.00 0.00 0.00 0.00 0.00 0.00 0.00 0.00 0.00 0.00 0.00 0.00 0.00 0.00 0.00 0.00 0.00 0.00 0.00 0.00 0.00 0.00 0.00 0.00 0.00 0.00 0.00 0.00 0.00
0.00 0.00 0.00 0.00 0.00 0.00 0.00 0.00 0.00 0.00 0.00 0.00 0.00 0.01 0.01 0.01 0.01 0.01 0.01 0.00 0.01 0.01 0.01 0.01 0.01 0.00 0.00 0.00 0.01 0.01 0.01 0.01 0.01 0.01 0.02 0.02 0.02 0.01 0.04 0.04 0.07 0.03 0.01 0.00 0.00 0.00 0.00 0.00 0.00 0.00 0.01 0.01 0.01 0.01 0.01 0.00 0.01 0.01 0.00 0.00 0.00 0.02 0.00 0.00 0.00 0.00 0.00 0.00 0.00 0.00 0.00 0.00 0.00 0.00 0.00 0.00 0.00 0.00 0.00 0.00 0.00 0.00 0.00 0.00 0.00
0.00 0.00 0.00 0.00 0.00 0.00 0.00 0.00 0.00 0.00 0.00 0.00 0.00 0.00 0.01 0.01 0.00 0.01 0.00 0.00 0.00 0.00 0.01 0.01 0.01 0.01 0.01 0.01 0.01 0.02 0.00 0.00 0.01 0.01 0.01 0.01 0.02 0.02 0.03 0.04 0.07 0.04 0.02 0.00 0.00 0.00 0.00 0.00 0.00 0.01 0.01 0.02 0.01 0.04 0.03 0.01 0.01 0.00 0.01 0.00 0.01 0.02 0.00 0.00 0.00 0.00 0.00 0.00 0.00 0.00 0.00 0.00 0.00 0.00 0.00 0.00 0.00 0.00 0.00 0.00 0.00 0.00 0.00 0.00 0.00
0.00 0.00 0.00 0.00 0.00 0.00 0.00 0.00 0.00 0.00 0.00 0.00 0.00 0.00 0.00 0.00 0.00 0.00 0.00 0.00 0.00 0.00 0.01 0.00 0.01 0.01 0.00 0.00 0.01 0.01 0.00 0.00 0.01 0.01 0.01 0.01 0.02 0.02 0.02 0.02 0.03 0.09 0.04 0.01 0.01 0.00 0.00 0.00 0.00 0.02 0.03 0.04 0.03 0.03 0.02 0.01 0.01 0.00 0.00 0.00 0.01 0.00 0.00 0.00 0.00 0.00 0.00 0.00 0.00 0.00 0.00 0.00 0.00 0.00 0.00 0.00 0.00 0.00 0.00 0.00 0.00 0.00 0.00 0.00 0.00
0.00 0.00 0.00 0.00 0.00 0.00 0.00 0.00 0.00 0.00 0.00 0.00 0.00 0.00 0.00 0.00 0.00 0.00 0.00 0.00 0.00 0.00 0.00 0.00 0.00 0.00 0.00 0.00 0.00 0.00 0.00 0.01 0.01 0.01 0.01 0.01 0.01 0.02 0.03 0.02 0.03 0.03 0.06 0.08 0.01 0.02 0.00 0.01 0.00 0.02 0.04 0.02 0.01 0.03 0.03 0.02 0.00 0.00 0.00 0.00 0.00 0.00 0.00 0.00 0.00 0.00 0.00 0.00 0.00 0.00 0.00 0.00 0.00 0.00 0.00 0.00 0.00 0.00 0.00 0.00 0.00 0.00 0.00 0.00 0.00
0.00 0.00 0.00 0.00 0.00 0.00 0.00 0.00 0.00 0.00 0.00 0.00 0.00 0.00 0.00 0.00 0.00 0.00 0.00 0.00 0.00 0.00 0.00 0.00 0.00 0.00 0.00 0.00 0.00 0.00 0.01 0.01 0.01 0.02 0.01 0.01 0.01 0.03 0.01 0.01 0.02 0.01 0.03 0.05 0.05 0.00 0.01 0.01 0.01 0.01 0.00 0.02 0.02 0.00 0.00 0.01 0.01 0.00 0.00 0.00 0.00 0.00 0.00 0.00 0.00 0.00 0.00 0.00 0.00 0.00 0.00 0.00 0.00 0.00 0.00 0.00 0.00 0.00 0.00 0.00 0.00 0.00 0.00 0.00 0.00
0.00 0.00 0.00 0.00 0.00 0.00 0.00 0.00 0.00 0.00 0.00 0.00 0.00 0.00 0.00 0.00 0.00 0.00 0.00 0.00 0.00 0.00 0.00 0.00 0.00 0.00 0.00 0.00 0.00 0.00 0.01 0.01 0.02 0.01 0.02 0.01 0.01 0.02 0.01 0.01 0.03 0.03 0.02 0.02 0.07 0.02 0.00 0.00 0.01 0.01 0.01 0.01 0.01 0.00 0.01 0.02 0.01 0.02 0.00 0.00 0.00 0.00 0.00 0.00 0.02 0.01 0.00 0.00 0.00 0.00 0.00 0.00 0.00 0.00 0.00 0.00 0.00 0.00 0.00 0.00 0.00 0.00 0.00 0.00 0.00
0.00 0.00 0.00 0.00 0.00 0.00 0.00 0.00 0.00 0.00 0.00 0.00 0.00 0.00 0.00 0.00 0.00 0.00 0.00 0.00 0.00 0.00 0.00 0.00 0.00 0.00 0.00 0.00 0.00 0.00 0.01 0.02 0.01 0.02 0.03 0.01 0.02 0.02 0.01 0.01 0.02 0.02 0.01 0.04 0.02 0.04 0.01 0.01 0.00 0.02 0.02 0.02 0.02 0.01 0.02 0.02 0.03 0.02 0.01 0.00 0.02 0.01 0.01 0.00 0.02 0.10 0.01 0.00 0.00 0.00 0.00 0.00 0.00 0.00 0.00 0.00 0.00 0.00 0.00 0.00 0.00 0.00 0.00 0.00 0.00
0.00 0.00 0.00 0.00 0.00 0.00 0.00 0.00 0.00 0.00 0.01 0.01 0.00 0.00 0.00 0.00 0.00 0.00 0.00 0.00 0.00 0.00 0.00 0.00 0.00 0.00 0.00 0.00 0.00 0.00 0.00 0.02 0.00 0.01 0.00 0.00 0.01 0.01 0.01 0.02 0.02 0.02 0.04 0.03 0.05 0.06 0.05 0.02 0.01 0.01 0.01 0.02 0.01 0.03 0.01 0.01 0.01 0.01 0.03 0.02 0.01 0.02 0.00 0.00 0.01 0.01 0.01 0.00 0.00 0.00 0.00 0.00 0.00 0.00 0.00 0.00 0.00 0.00 0.00 0.00 0.00 0.00 0.00 0.00 0.00
0.00 0.00 0.00 0.00 0.00 0.00 0.01 0.02 0.03 0.03 0.02 0.02 0.02 0.00 0.00 0.00 0.00 0.00 0.00 0.00 0.00 0.00 0.00 0.00 0.00 0.00 0.00 0.00 0.00 0.00 0.00 0.00 0.00 0.00 0.01 0.02 0.03 0.01 0.01 0.02 0.02 0.01 0.02 0.03 0.03 0.02 0.06 0.09 0.03 0.02 0.00 0.01 0.01 0.01 0.01 0.01 0.01 0.01 0.02 0.02 0.00 0.00 0.00 0.01 0.01 0.02 0.02 0.00 0.00 0.00 0.00 0.00 0.00 0.00 0.00 0.00 0.00 0.00 0.00 0.00 0.00 0.00 0.00 0.00 0.00
0.03 0.06 0.04 0.04 0.08 0.11 0.12 0.09 0.07 0.06 0.04 0.02 0.00 0.00 0.00 0.00 0.00 0.00 0.00 0.00 0.00 0.00 0.00 0.00 0.00 0.00 0.00 0.00 0.00 0.00 0.00 0.00 0.01 0.01 0.01 0.02 0.01 0.01 0.01 0.01 0.01 0.04 0.07 0.02 0.02 0.08 0.07 0.13 0.06 0.03 0.02 0.01 0.01 0.01 0.01 0.02 0.02 0.01 0.01 0.01 0.01 0.01 0.00 0.01 0.02 0.01 0.01 0.00 0.00 0.00 0.00 0.00 0.00 0.00 0.00 0.00 0.00 0.00 0.00 0.00 0.00 0.00 0.00 0.00 0.00
0.06 0.07 0.10 0.16 0.19 0.18 0.14 0.11 0.08 0.06 0.02 0.00 0.00 0.00 0.00 0.00 0.00 0.00 0.00 0.00 0.00 0.00 0.00 0.00 0.00 0.00 0.00 0.00 0.00 0.00 0.00 0.00 0.00 0.00 0.00 0.01 0.01 0.01 0.01 0.01 0.06 0.21 0.11 0.10 0.17 0.29 0.10 0.07 0.18 0.11 0.04 0.04 0.03 0.01 0.01 0.02 0.04 0.04 0.01 0.01 0.01 0.01 0.02 0.02 0.02 0.01 0.03 0.02 0.02 0.02 0.01 0.00 0.00 0.00 0.00 0.00 0.00 0.00 0.00 0.00 0.00 0.00 0.00 0.00 0.00
0.22 0.20 0.24 0.23 0.20 0.17 0.13 0.10 0.05 0.01 0.00 0.00 0.00 0.00 0.00 0.00 0.00 0.00 0.00 0.00 0.00 0.00 0.00 0.00 0.00 0.00 0.00 0.01 0.00 0.00 0.00 0.00 0.00 0.01 0.02 0.02 0.01 0.02 0.03 0.02 0.03 0.13 0.08 0.04 0.03 0.04 0.15 0.12 0.06 0.10 0.06 0.03 0.02 0.06 0.05 0.01 0.04 0.02 0.04 0.05 0.08 0.02 0.02 0.04 0.03 0.01 0.01 0.02 0.02 0.01 0.00 0.00 0.00 0.00 0.00 0.00 0.00 0.00 0.00 0.00 0.00 0.00 0.00 0.00 0.00
0.29 0.31 0.28 0.26 0.22 0.15 0.07 0.02 0.00 0.01 0.00 0.00 0.00 0.00 0.00 0.00 0.00 0.00 0.00 0.00 0.00 0.00 0.01 0.01 0.00 0.00 0.00 0.00 0.01 0.00 0.00 0.01 0.01 0.00 0.02 0.01 0.01 0.01 0.01 0.01 0.01 0.02 0.07 0.04 0.02 0.04 0.03 0.03 0.03 0.09 0.05 0.05 0.03 0.02 0.02 0.02 0.06 0.05 0.05 0.07 0.06 0.05 0.05 0.08 0.17 0.05 0.02 0.01 0.00 0.00 0.00 0.00 0.00 0.01 0.00 0.00 0.00 0.00 0.00 0.00 0.00 0.00 0.00 0.00 0.00
0.41 0.33 0.22 0.14 0.07 0.04 0.02 0.01 0.00 0.00 0.00 0.00 0.00 0.00 0.00 0.00 0.00 0.00 0.00 0.00 0.00 0.00 0.02 0.03 0.01 0.01 0.00 0.01 0.01 0.02 0.02 0.01 0.02 0.02 0.01 0.01 0.01 0.00 0.03 0.01 0.05 0.04 0.02 0.08 0.03 0.02 0.07 0.04 0.03 0.07 0.06 0.05 0.04 0.03 0.04 0.07 0.05 0.07 0.05 0.04 0.04 0.03 0.03 0.04 0.04 0.02 0.02 0.03 0.03 0.00 0.00 0.00 0.01 0.00 0.00 0.00 0.00 0.00 0.00 0.00 0.00 0.00 0.00 0.00 0.00
0.25 0.16 0.11 0.07 0.05 0.03 0.01 0.01 0.01 0.00 0.00 0.00 0.00 0.00 0.00 0.00 0.00 0.00 0.00 0.00 0.00 0.00 0.00 0.00 0.01 0.00 0.00 0.02 0.19 0.09 0.08 0.06 0.06 0.04 0.02 0.03 0.08 0.10 0.04 0.03 0.02 0.02 0.02 0.02 0.02 0.02 0.03 0.04 0.07 0.06 0.09 0.16 0.04 0.03 0.04 0.03 0.02 0.03 0.04 0.07 0.09 0.07 0.03 0.09 0.02 0.02 0.03 0.02 0.02 0.01 0.01 0.01 0.01 0.01 0.00 0.00 0.00 0.00 0.00 0.00 0.00 0.00 0.00 0.00 0.00
0.13 0.13 0.11 0.10 0.07 0.04 0.02 0.01 0.01 0.00 0.00 0.00 0.00 0.00 0.00 0.00 0.00 0.00 0.00 0.00 0.00 0.00 0.01 0.00 0.01 0.00 0.00 0.00 0.01 0.02 0.02 0.05 0.09 0.04 0.05 0.05 0.03 0.03 0.03 0.02 0.01 0.01 0.01 0.01 0.02 0.02 0.03 0.03 0.06 0.04 0.04 0.07 0.04 0.02 0.02 0.03 0.03 0.08 0.08 0.06 0.09 0.08 0.09 0.10 0.06 0.02 0.03 0.03 0.03 0.01 0.00 0.00 0.00 0.00 0.00 0.00 0.00 0.00 0.00 0.00 0.00 0.00 0.00 0.00 0.00
0.10 0.10 0.12 0.12 0.09 0.06 0.04 0.02 0.01 0.00 0.00 0.00 0.00 0.00 0.00 0.00 0.00 0.00 0.00 0.00 0.00 0.00 0.00 0.00 0.00 0.01 0.01 0.04 0.10 0.17 0.16 0.14 0.13 0.08 0.06 0.03 0.02 0.01 0.01 0.01 0.03 0.01 0.00 0.00 0.01 0.02 0.02 0.04 0.04 0.06 0.04 0.05 0.04 0.04 0.05 0.07 0.07 0.06 0.04 0.07 0.05 0.07 0.11 0.13 0.11 0.09 0.07 0.03 0.03 0.01 0.00 0.00 0.00 0.00 0.00 0.00 0.00 0.00 0.00 0.00 0.00 0.00 0.00 0.00 0.00
0.05 0.09 0.13 0.14 0.12 0.09 0.05 0.03 0.01 0.01 0.01 0.00 0.00 0.00 0.00 0.00 0.00 0.00 0.00 0.00 0.00 0.00 0.00 0.00 0.00 0.01 0.06 0.08 0.14 0.28 0.11 0.05 0.07 0.04 0.02 0.01 0.01 0.01 0.01 0.01 0.00 0.00 0.00 0.00 0.00 0.03 0.08 0.04 0.04 0.03 0.03 0.04 0.13 0.15 0.06 0.07 0.04 0.08 0.08 0.07 0.06 0.08 0.09 0.09 0.09 0.05 0.03 0.01 0.01 0.00 0.00 0.00 0.00 0.00 0.00 0.00 0.00 0.00 0.00 0.00 0.00 0.00 0.00 0.00 0.00
0.18 0.13 0.14 0.15 0.13 0.11 0.08 0.06 0.05 0.03 0.02 0.01 0.01 0.00 0.00 0.01 0.01 0.01 0.01 0.01 0.00 0.01 0.01 0.02 0.01 0.01 0.02 0.05 0.45 0.49 0.08 0.12 0.04 0.02 0.03 0.02 0.06 0.06 0.04 0.05 0.04 0.02 0.01 0.00 0.00 0.00 0.01 0.02 0.08 0.07 0.03 0.47 0.28 0.11 0.09 0.05 0.08 0.08 0.07 0.09 0.06 0.10 0.08 0.07 0.05 0.01 0.00 0.00 0.01 0.03 0.02 0.00 0.00 0.00 0.00 0.00 0.00 0.00 0.00 0.00 0.00 0.00 0.00 0.00 0.00
0.12 0.06 0.06 0.06 0.06 0.06 0.05 0.05 0.05 0.05 0.04 0.02 0.01 0.01 0.00 0.00 0.00 0.00 0.00 0.01 0.02 0.02 0.02 0.02 0.02 0.02 0.14 0.47 0.42 0.15 0.03 0.07 0.04 0.01 0.01 0.00 0.00 0.02 0.04 0.03 0.04 0.01 0.03 0.04 0.03 0.14 0.06 0.07 0.06 0.04 0.03 0.02 0.05 0.06 0.04 0.03 0.02 0.02 0.03 0.17 0.08 0.07 0.05 0.03 0.02 0.00 0.00 0.01 0.02 0.03 0.03 0.00 0.00 0.00 0.00 0.00 0.00 0.00 0.00 0.00 0.00 0.00 0.00 0.00 0.00
0.05 0.03 0.04 0.04 0.08 0.21 0.15 0.15 0.12 0.08 0.05 0.03 0.01 0.01 0.01 0.02 0.01 0.02 0.02 0.01 0.02 0.01 0.02 0.01 0.02 0.07 0.12 0.37 0.07 0.09 0.10 0.09 0.05 0.03 0.12 0.24 0.28 0.26 0.05 0.05 0.02 0.01 0.02 0.01 0.00 0.00 0.01 0.01 0.01 0.01 0.02 0.01 0.01 0.01 0.03 0.02 0.01 0.01 0.05 0.01 0.02 0.03 0.06 0.03 0.03 0.00 0.00 0.00 0.00 0.00 0.00 0.00 0.01 0.01 0.00 0.00 0.00 0.00 0.00 0.00 0.00 0.00 0.00 0.00 0.00
0.01 0.01 0.02 0.04 0.03 0.09 0.08 0.03 0.03 0.03 0.05 0.05 0.05 0.04 0.04 0.02 0.02 0.02 0.01 0.01 0.04 0.03 0.05 0.08 0.04 0.12 0.24 0.20 0.10 0.16 0.05 0.04 0.07 0.14 0.21 0.12 0.04 0.03 0.02 0.03 0.03 0.04 0.03 0.03 0.03 0.01 0.00 0.00 0.00 0.00 0.00 0.00 0.00 0.00 0.00 0.00 0.21 0.02 0.04 0.07 0.04 0.01 0.03 0.04 0.02 0.01 0.00 0.00 0.00 0.00 0.01 0.04 0.02 0.01 0.01 0.00 0.00 0.00 0.00 0.00 0.00 0.00 0.00 0.00 0.00
0.01 0.00 0.01 0.02 0.04 0.03 0.02 0.02 0.02 0.05 0.06 0.03 0.01 0.01 0.01 0.01 0.02 0.03 0.02 0.03 0.07 0.06 0.08 0.30 0.30 0.25 0.05 0.05 0.03 0.06 0.18 0.14 0.03 0.12 0.03 0.22 0.26 0.03 0.02 0.02 0.01 0.02 0.01 0.01 0.01 0.02 0.01 0.00 0.00 0.00 0.00 0.00 0.01 0.00 0.00 0.00 0.00 0.01 0.04 0.07 0.01 0.04 0.15 0.09 0.17 0.07 0.02 0.01 0.01 0.00 0.08 0.10 0.02 0.01 0.02 0.00 0.00 0.00 0.00 0.00 0.00 0.00 0.00 0.00 0.00
0.00 0.00 0.00 0.02 0.03 0.01 0.01 0.06 0.04 0.03 0.05 0.04 0.03 0.02 0.02 0.08 0.07 0.10 0.13 0.10 0.09 0.27 0.16 0.29 0.23 0.07 0.12 0.05 0.14 0.17 0.12 0.06 0.10 0.17 0.06 0.04 0.01 0.01 0.01 0.01 0.01 0.01 0.01 0.01 0.01 0.01 0.01 0.00 0.00 0.00 0.00 0.01 0.05 0.02 0.02 0.00 0.00 0.00 0.01 0.07 0.04 0.35 0.70 0.50 0.61 0.34 0.16 0.05 0.04 0.01 0.12 0.13 0.07 0.03 0.04 0.07 0.07 0.02 0.00 0.00 0.00 0.00 0.01 0.00 0.00